Temperature
23 24 26 26 26 26 25 23 23 24 23 23 23 23 24 24 24 24 23 23 23 23 23 23 22 22 22 22 22 21 21 21 20 20 20 20 20 19 19 19 19 19 18 18
23 25 26 26 26 26 26 25 24 24 23 23 24 24 24 24 23 23 23 23 23 23 23 23 22 22 22 22 21 21 21 21 20 20 20 20 19 19 19 19 19 18 18 18
21 23 24 24 25 26 25 25 25 24 23 22 22 22 23 23 23 23 23 23 23 23 23 23 22 22 22 21 21 21 21 20 20 20 20 20 19 19 19 19 18 18 18 18
19 22 23 23 24 25 25 24 24 23 23 23 23 23 24 24 24 24 24 24 23 23 23 23 22 22 22 21 21 21 21 20 20 20 20 19 19 19 19 19 18 18 18 18
18 20 21 23 25 25 24 23 23 22 23 23 23 23 22 23 24 24 24 24 23 23 23 23 22 22 21 21 21 20 20 20 20 20 19 19 19 19 19 18 18 18 18 18
18 20 21 22 24 25 24 22 23 22 22 22 22 20 20 23 23 24 23 23 23 23 22 22 22 22 21 21 20 20 20 20 20 20 19 19 19 19 18 18 18 18 18 17
18 19 20 21 23 24 22 21 22 23 23 22 21 21 23 23 23 23 23 23 23 22 22 22 21 21 21 21 20 20 20 20 19 19 19 19 18 18 18 18 18 17 17 17
17 18 19 21 22 21 20 22 22 23 23 23 23 23 23 23 23 23 22 22 22 22 22 21 21 21 21 20 20 20 19 19 19 19 19 18 18 18 18 17 17 17 17 17
17 18 19 21 22 22 22 22 22 22 22 22 22 22 22 22 22 22 22 22 22 21 21 21 21 20 20 20 20 19 19 19 18 18 18 18 18 17 17 17 17 17 17 16
16 18 19 20 21 22 22 22 22 22 22 22 22 22 22 22 21 21 21 21 21 21 20 20 20 20 20 19 19 19 18 18 18 18 17 17 17 17 17 17 17 16 16 16
16 16 18 20 20 21 21 21 21 21 22 22 21 21 21 21 21 20 20 20 20 20 20 20 20 19 19 19 18 18 18 18 17 17 17 17 17 16 16 17 16 16 16 16
15 16 16 18 19 20 20 21 21 21 21 21 21 20 20 20 20 20 20 19 19 19 19 19 19 19 18 18 18 18 17 17 17 17 16 16 16 16 16 16 16 16 16 16
18 18 18 18 19 19 20 20 20 20 20 20 20 20 20 19 19 19 19 19 19 18 18 18 18 18 18 17 17 17 17 17 17 16 16 16 16 16 16 16 16 15 15 15
18 18 18 18 18 19 19 19 20 20 19 19 19 19 19 19 18 18 18 18 18 18 17 17 17 17 17 17 17 17 16 16 16 16 16 16 15 15 15 15 15 15 15 15
18 18 17 17 18 18 18 19 19 18 18 18 18 18 18 18 18 17 17 17 17 17 17 17 17 17 17 16 16 16 16 16 16 16 16 15 15 15 15 15 15 15 15 15
17 17 17 17 17 18 18 18 18 18 18 18 17 17 17 17 17 17 17 17 16 16 16 16 16 16 16 16 16 16 16 15 15 15 15 15 15 15 14 14 14 14 14 14
17 16 17 17 17 17 17 17 17 17 17 17 17 17 16 16 16 16 16 16 16 16 16 16 16 16 16 16 15 15 15 15 15 15 14 14 14 14 14 14 14 14 14 14
17 16 16 16 16 16 16 16 17 16 16 16 16 16 15 15 15 15 15 15 15 15 15 15 15 15 15 15 15 15 15 15 15 14 14 14 14 14 14 14 14 14 13 13
16 16 16 16 16 16 16 16 16 16 15 15 15 15 15 15 15 15 15 15 15 15 15 15 15 15 15 15 15 15 14 14 14 14 14 14 14 14 13 13 13 13 13 13
16 15 15 15 15 15 15 15 15 15 15 15 15 15 15 14 14 14 14 14 14 15 15 14 14 14 14 14 14 14 14 14 14 14 13 13 13 13 13 13 13 13 12 12
15 15 15 15 15 14 15 15 15 14 14 14 14 14 14 14 14 14 14 14 14 14 14 14 14 14 14 14 14 14 14 14 14 13 13 13 13 13 13 12 12 12 12 12
14 14 14 14 14 14 14 14 14 14 14 14 14 14 14 14 14 14 14 14 14 14 14 14 13 14 14 14 14 13 13 13 13 13 13 13 13 12 12 12 12 12 12 12
13 13 13 13 13 13 13 14 14 13 13 13 13 13 13 13 13 13 13 13 13 13 13 13 13 13 13 13 13 13 13 13 13 13 12 12 12 12 12 12 12 12 12 11
13 13 13 13 13 13 13 13 13 13 13 13 13 13 13 13 13 13 13 13 13 13 13 13 13 13 13 13 13 13 13 12 12 12 12 12 12 12 12 11 11 11 11 11
13 13 13 13 13 13 13 13 13 13 13 13 13 13 13 13 13 13 13 13 13 13 13 13 13 13 12 12 12 12 12 12 12 12 12 12 12 11 11 11 11 11 11 10
13 13 13 13 13 13 13 13 13 13 13 13 13 13 13 13 13 13 13 13 13 13 12 12 12 12 12 12 12 12 12 12 12 12 12 11 11 11 11 11 11 11 10 10
13 13 13 13 13 13 13 13 13 13 12 12 12 12 12 12 12 12 12 12 12 12 12 12 12 12 12 11 11 11 11 11 11 11 11 11 11 11 10 10 10 10 10 10
Wind_Speed
4 5 2 1 3 2 3 6 6 7 7 9 8 8 8 8 8 8 8 8 8 8 7 6 5 5 6 6 6 7 6 6 6 5 5 4 4 4 3 4 5 5 4 3
3 2 2 2 3 2 2 3 4 4 4 6 6 6 7 8 9 9 8 9 9 8 8 7 7 6 6 6 6 6 6 5 4 4 4 4 4 4 4 4 4 4 4 4
2 4 4 4 4 3 2 2 5 6 6 4 6 7 8 9 9 9 8 8 8 9 8 8 8 7 6 6 5 6 6 5 5 4 4 4 4 4 4 4 3 4 4 4
1 3 4 8 4 3 3 1 0 3 5 8 9 7 5 7 8 8 7 7 7 7 7 7 8 7 6 5 5 5 5 4 5 5 5 4 4 4 4 3 4 4 4 4
4 2 5 6 4 1 3 2 1 4 5 7 8 8 4 1 5 6 6 6 6 7 6 7 7 8 7 6 5 5 5 5 5 5 5 4 5 5 4 4 4 4 4 4
4 3 5 6 5 1 6 0 3 5 6 7 7 5 3 3 3 4 4 4 5 5 5 5 5 6 7 6 6 6 6 6 5 5 5 5 5 4 3 3 4 3 3 4
4 4 6 6 6 3 4 6 3 4 6 7 6 6 6 4 4 4 4 4 4 5 5 5 5 7 7 6 7 7 5 5 4 5 5 4 4 3 2 2 2 2 3 3
5 4 7 5 3 3 5 3 3 4 5 7 6 5 5 5 5 4 4 4 4 4 3 3 4 6 6 5 6 4 4 4 4 4 4 4 4 3 3 3 3 3 3 3
6 7 5 1 3 2 4 4 4 5 5 7 6 5 5 5 4 4 4 4 4 4 3 2 3 5 5 5 4 4 5 5 5 4 4 4 5 5 3 3 3 3 3 4
1 1 2 3 4 4 4 4 4 5 6 6 5 4 4 4 3 3 2 3 3 3 2 1 2 3 4 4 3 4 5 5 4 4 4 4 4 4 4 4 4 4 4 4
1 2 5 6 4 2 3 4 5 5 5 5 5 3 3 3 3 3 2 2 3 3 3 3 3 3 3 3 3 4 5 5 5 5 5 4 4 4 5 5 6 6 5 5
4 4 2 3 4 2 4 3 3 5 4 3 3 3 3 3 3 3 2 2 2 2 2 3 3 3 3 3 4 5 5 5 5 4 4 4 4 3 4 5 6 8 7 6
4 3 3 3 3 2 2 2 3 4 4 2 1 2 3 2 2 2 2 3 3 3 3 3 3 4 4 4 4 6 6 6 5 5 5 5 5 5 4 4 4 5 7 8
1 1 1 2 3 3 2 2 3 4 3 2 1 1 2 1 1 1 2 3 3 3 3 3 4 5 5 4 5 6 7 7 7 6 6 6 6 6 5 5 4 4 4 6
1 2 3 3 3 3 2 2 4 3 2 2 2 1 1 1 1 2 3 2 2 2 3 3 4 6 5 5 5 7 7 6 6 6 6 6 6 5 5 5 5 4 2 2
2 1 1 1 2 2 1 1 1 0 1 1 1 1 1 1 2 3 3 2 2 4 4 4 5 6 5 5 6 6 6 9 7 6 6 6 5 5 5 5 5 5 4 4
1 2 2 2 2 2 1 2 2 2 2 2 3 2 1 2 3 4 4 4 4 4 4 4 6 6 5 5 6 5 6 7 8 6 5 6 5 5 5 5 5 5 5 5
4 4 4 3 3 2 2 2 2 2 3 3 3 2 2 3 4 5 6 4 4 4 5 5 5 4 4 5 5 5 5 5 5 6 5 5 5 5 5 5 5 5 3 4
1 1 1 2 2 2 3 3 3 3 3 3 3 4 4 5 5 6 5 4 4 6 6 5 5 4 4 6 5 4 4 5 5 5 5 6 5 4 4 4 4 4 4 3
1 1 1 2 2 3 3 4 3 3 3 3 3 3 4 5 4 4 4 5 6 6 6 5 4 4 5 5 5 4 4 5 5 4 4 4 5 4 4 4 4 4 4 4
1 2 1 2 3 2 2 3 3 3 4 4 4 4 5 5 4 3 3 5 6 6 5 5 4 4 4 4 4 4 4 4 4 4 4 4 4 4 4 4 4 5 4 4
1 1 2 2 1 2 2 2 1 2 3 3 4 5 4 4 4 4 5 5 5 6 4 4 4 5 5 4 3 3 4 4 4 4 4 4 4 4 4 5 5 5 5 5
1 2 2 2 1 2 2 2 2 2 3 4 5 5 6 5 4 4 5 5 4 5 4 4 5 5 5 3 2 3 4 4 4 4 4 4 4 4 4 5 5 5 4 4
0 1 2 2 2 2 3 4 3 3 3 4 5 5 4 3 3 4 4 5 5 4 3 4 4 4 3 2 2 3 3 3 3 3 3 3 4 4 4 4 4 3 3 4
1 1 2 3 3 3 4 4 4 4 4 3 3 3 3 3 4 4 3 3 3 3 2 3 4 3 2 2 2 2 2 2 2 2 2 3 3 3 3 3 3 3 3 3
2 3 3 4 3 3 3 2 2 2 2 2 3 3 2 2 2 2 1 1 2 2 1 1 2 2 1 1 1 1 1 1 1 1 2 2 2 2 2 2 3 2 2 2
3 3 3 3 3 2 2 1 2 2 1 1 2 2 2 1 1 1 1 1 1 1 0 1 1 1 1 0 0 0 0 0 0 0 1 1 1 1 2 2 2 2 2 2
Wind_Direction
208 221 214 232 261 251 186 185 184 209 189 206 192 174 160 144 130 131 142 146 156 161 158 155 155 160 163 169 168 165 164 174 191 196 192 188 194 200 200 196 198 194 191 201
339 340 13 323 278 261 236 186 172 159 214 220 184 142 130 138 142 144 153 163 164 163 159 159 162 167 163 162 163 155 160 174 178 175 182 193 205 203 201 206 205 193 193 201
276 316 27 296 243 209 233 208 170 183 210 165 136 146 158 158 157 155 159 159 165 171 172 172 168 169 172 173 161 159 169 176 175 176 184 197 201 194 206 212 208 207 207 207
141 47 228 244 253 150 118 31 170 166 164 156 157 157 149 149 154 158 157 155 163 173 179 175 166 162 165 162 159 163 172 185 190 190 200 202 199 207 214 207 209 218 218 217
124 178 275 292 290 173 129 348 21 130 141 145 133 91 52 137 151 161 165 164 167 175 179 170 163 162 156 164 172 172 183 196 202 201 206 206 211 215 214 210 222 223 217 217
131 158 227 255 283 224 110 17 289 132 140 149 120 123 216 215 159 146 148 160 158 157 151 158 168 156 153 169 177 192 200 201 199 195 200 212 215 212 212 213 220 218 227 225
160 197 252 261 287 43 127 213 245 148 140 136 146 176 190 162 137 131 138 143 137 134 149 172 168 154 166 182 198 204 195 188 193 198 201 199 194 194 191 200 205 217 229 238
158 186 245 285 40 138 199 192 134 112 112 116 131 141 140 132 129 122 113 111 124 134 146 155 153 156 171 200 211 190 178 187 199 200 199 193 184 194 197 195 205 226 236 257
183 210 240 295 125 155 144 119 111 107 102 109 115 130 128 125 122 124 127 121 123 130 142 152 166 168 191 217 201 181 180 196 205 201 199 189 187 197 203 203 211 228 231 241
56 303 332 27 62 59 71 98 107 112 108 102 105 121 122 116 110 107 115 131 131 128 139 197 208 200 211 218 195 185 196 207 206 201 203 200 198 200 202 209 215 223 230 237
30 313 2 360 10 49 58 76 91 92 101 112 115 119 132 137 141 143 136 143 145 153 178 214 219 219 222 209 186 196 209 213 208 204 204 205 207 215 218 224 221 219 227 227
222 241 203 274 314 14 58 60 98 95 87 98 124 139 137 153 168 161 158 155 150 164 190 218 219 230 235 220 203 205 215 219 214 210 208 209 210 239 254 245 251 240 237 229
204 224 209 263 321 11 65 54 92 101 120 128 120 135 140 162 180 168 165 172 183 200 208 214 215 235 243 231 220 217 219 218 214 210 209 212 213 216 243 268 268 261 252 242
202 101 11 327 316 338 29 54 75 69 81 113 123 109 117 123 138 183 210 214 205 203 216 221 224 244 245 231 229 232 230 222 215 213 213 216 218 221 225 233 249 259 261 241
245 183 212 234 302 340 16 57 67 57 58 58 71 84 109 142 227 257 252 233 215 229 240 235 237 250 249 234 233 234 230 227 219 215 216 218 220 223 228 230 232 238 240 246
223 263 279 289 309 323 0 62 105 225 175 141 140 198 233 235 251 273 282 260 227 241 246 242 245 250 249 236 235 238 232 227 219 218 218 218 219 221 224 222 224 230 231 227
169 275 282 281 288 302 283 205 190 211 208 201 218 225 242 280 289 286 282 273 251 248 248 244 250 253 246 235 232 238 233 224 219 223 221 220 223 225 225 222 222 226 232 222
204 215 222 223 229 252 283 238 191 203 218 217 211 211 223 235 251 263 268 273 275 273 265 252 252 258 253 243 235 237 230 225 220 221 223 224 224 224 225 222 220 224 236 228
208 209 255 275 242 230 249 246 235 235 244 234 218 220 229 234 243 252 252 254 258 263 264 260 263 258 255 255 244 229 225 227 228 227 224 223 223 220 218 219 219 216 215 215
332 289 282 293 298 279 256 247 239 242 247 235 225 229 246 258 259 259 254 254 249 245 249 255 256 255 258 260 250 238 226 220 222 224 222 220 218 217 217 216 217 216 214 212
343 332 314 311 306 297 260 240 227 239 248 238 229 239 250 260 262 258 255 267 271 264 258 254 253 257 258 257 246 235 226 223 222 222 221 217 215 217 218 217 218 220 220 219
319 303 309 310 301 298 287 274 259 264 272 262 251 248 251 258 261 263 254 246 255 259 261 261 260 254 253 261 249 231 223 222 220 221 223 220 216 220 224 223 224 226 225 220
250 268 286 287 271 275 301 308 302 290 273 262 258 254 250 249 242 242 267 263 253 252 261 264 261 257 258 259 242 230 225 228 226 223 223 222 220 220 224 227 228 223 223 224
338 271 293 307 331 331 307 293 289 281 270 266 264 256 246 252 267 258 249 255 258 266 268 254 252 262 267 262 242 235 231 230 226 215 218 221 218 219 220 221 224 221 221 225
341 315 309 320 319 297 281 284 296 296 293 289 281 270 256 236 240 258 256 247 254 260 257 250 255 264 262 249 238 236 239 238 242 228 218 223 224 222 219 215 214 213 216 217
299 286 276 268 267 274 284 289 289 291 299 309 311 310 302 290 269 271 277 276 266 261 265 271 273 275 262 259 258 251 243 251 250 232 232 240 227 223 226 221 210 211 212 213
304 300 299 300 297 290 290 289 288 296 291 280 287 296 299 305 306 309 316 325 346 341 336 301 292 294 292 286 147 88 59 52 69 124 141 145 161 188 194 193 203 203 197 201
Height
1489 1485 1483 1484 1484 1485 1491 1498 1506 1501 1498 1492 1487 1486 1487 1489 1491 1494 1496 1498 1500 1502 1504 1507 1509 1511 1513 1514 1515 1517 1519 1520 1521 1522 1522 1522 1523 1523 1523 1523 1523 1523 1523 1523
1490 1482 1481 1483 1481 1482 1484 1486 1490 1492 1493 1483 1482 1484 1486 1488 1490 1492 1494 1496 1499 1501 1503 1505 1508 1510 1512 1512 1514 1515 1517 1518 1519 1519 1519 1520 1520 1520 1520 1520 1520 1520 1520 1520
1503 1490 1486 1495 1483 1481 1482 1481 1484 1491 1488 1482 1484 1485 1485 1487 1488 1489 1491 1493 1496 1498 1499 1502 1504 1508 1510 1511 1512 1513 1514 1515 1516 1516 1517 1517 1517 1517 1517 1517 1517 1517 1517 1517
1505 1499 1509 1492 1474 1473 1478 1480 1477 1478 1478 1479 1481 1483 1485 1486 1487 1488 1490 1491 1493 1496 1498 1500 1502 1505 1508 1509 1510 1511 1512 1512 1513 1513 1514 1514 1514 1514 1514 1514 1514 1514 1514 1514
1509 1510 1502 1485 1474 1472 1478 1484 1477 1477 1478 1479 1480 1483 1486 1487 1487 1487 1489 1491 1492 1494 1497 1499 1500 1502 1504 1506 1507 1508 1508 1509 1510 1510 1510 1511 1511 1511 1511 1511 1511 1511 1511 1511
1505 1507 1508 1489 1472 1468 1474 1489 1478 1476 1477 1479 1480 1489 1489 1487 1487 1488 1490 1491 1492 1494 1496 1497 1498 1500 1502 1503 1504 1504 1505 1506 1507 1507 1507 1508 1508 1508 1508 1508 1508 1508 1508 1508
1502 1504 1496 1478 1470 1469 1488 1490 1477 1475 1475 1476 1479 1482 1484 1485 1486 1487 1488 1490 1491 1492 1494 1495 1496 1498 1499 1500 1500 1501 1503 1503 1504 1504 1504 1504 1505 1505 1505 1505 1505 1504 1504 1504
1500 1504 1499 1473 1471 1477 1479 1474 1475 1475 1475 1476 1477 1480 1482 1483 1484 1485 1487 1488 1489 1490 1491 1493 1494 1495 1496 1496 1497 1498 1499 1500 1500 1500 1500 1501 1501 1501 1501 1502 1501 1501 1500 1500
1489 1489 1477 1472 1472 1473 1473 1474 1475 1475 1476 1476 1478 1480 1481 1482 1483 1484 1485 1487 1487 1488 1490 1491 1492 1492 1493 1493 1494 1495 1495 1496 1496 1496 1497 1497 1497 1497 1497 1498 1497 1497 1496 1496
1482 1479 1476 1474 1473 1474 1474 1475 1475 1476 1477 1478 1479 1480 1481 1481 1482 1483 1484 1485 1486 1486 1487 1488 1489 1489 1490 1490 1491 1491 1491 1491 1492 1492 1492 1492 1493 1493 1493 1493 1492 1492 1492 1492
1482 1479 1477 1475 1475 1475 1475 1475 1475 1476 1477 1478 1479 1480 1480 1481 1482 1482 1483 1483 1484 1484 1484 1485 1485 1486 1486 1487 1487 1487 1487 1487 1487 1487 1487 1488 1488 1488 1489 1489 1489 1489 1488 1488
1483 1478 1478 1478 1477 1476 1475 1475 1475 1476 1477 1478 1479 1479 1479 1480 1480 1481 1481 1481 1481 1481 1482 1482 1482 1482 1482 1483 1483 1482 1482 1483 1482 1483 1483 1483 1483 1483 1484 1484 1484 1485 1484 1484
1475 1476 1476 1476 1476 1475 1474 1474 1474 1474 1476 1477 1477 1478 1478 1478 1478 1478 1478 1479 1479 1479 1479 1478 1478 1478 1478 1479 1479 1478 1478 1478 1477 1478 1478 1478 1478 1478 1478 1478 1479 1479 1479 1479
1473 1474 1475 1474 1474 1473 1472 1473 1472 1473 1474 1475 1476 1476 1476 1475 1476 1476 1475 1475 1475 1475 1475 1474 1474 1474 1474 1474 1474 1473 1473 1473 1472 1472 1473 1473 1473 1473 1473 1473 1473 1473 1474 1474
1472 1472 1473 1473 1472 1471 1471 1471 1470 1471 1472 1473 1473 1474 1473 1472 1472 1472 1472 1471 1471 1471 1471 1470 1469 1469 1470 1469 1469 1468 1468 1467 1467 1467 1467 1467 1467 1467 1467 1468 1468 1468 1468 1468
1470 1470 1470 1470 1470 1469 1469 1469 1468 1469 1469 1470 1470 1470 1470 1469 1469 1468 1468 1467 1467 1466 1466 1465 1465 1465 1465 1464 1463 1463 1462 1462 1462 1462 1462 1462 1462 1462 1462 1462 1462 1462 1462 1462
1467 1467 1467 1467 1467 1467 1467 1466 1466 1466 1466 1466 1466 1466 1466 1465 1465 1464 1463 1463 1462 1462 1461 1461 1461 1460 1459 1458 1458 1457 1456 1456 1456 1456 1456 1456 1457 1457 1457 1457 1457 1457 1457 1458
1464 1465 1465 1464 1464 1464 1464 1463 1462 1462 1462 1461 1462 1462 1461 1461 1460 1459 1459 1458 1458 1458 1457 1456 1456 1454 1453 1453 1452 1451 1450 1450 1450 1450 1450 1451 1451 1452 1452 1452 1452 1452 1452 1453
1460 1461 1461 1461 1461 1460 1459 1459 1458 1458 1457 1457 1457 1456 1456 1455 1455 1454 1454 1453 1453 1452 1451 1451 1450 1449 1448 1447 1446 1445 1445 1444 1444 1444 1445 1445 1446 1446 1447 1447 1447 1447 1447 1447
1457 1457 1457 1457 1456 1456 1455 1454 1454 1453 1453 1452 1452 1451 1451 1450 1450 1449 1449 1448 1447 1447 1446 1446 1445 1444 1443 1442 1441 1440 1439 1439 1439 1439 1439 1440 1440 1440 1441 1442 1442 1442 1442 1442
1453 1453 1453 1453 1452 1451 1451 1450 1449 1448 1447 1447 1446 1446 1446 1446 1446 1445 1444 1443 1442 1442 1441 1440 1439 1438 1437 1436 1435 1435 1434 1434 1433 1434 1434 1434 1435 1435 1436 1436 1437 1437 1437 1437
1451 1450 1450 1450 1449 1448 1447 1446 1444 1443 1443 1442 1442 1442 1442 1442 1442 1441 1440 1439 1438 1437 1436 1434 1433 1432 1431 1430 1429 1429 1429 1429 1428 1428 1429 1429 1430 1430 1430 1431 1431 1431 1431 1431
1448 1448 1448 1447 1446 1445 1444 1443 1441 1440 1439 1439 1439 1438 1438 1438 1437 1436 1435 1434 1433 1432 1431 1429 1428 1427 1426 1425 1425 1424 1424 1424 1423 1424 1424 1425 1425 1425 1426 1426 1426 1426 1426 1426
1446 1446 1446 1445 1444 1443 1441 1440 1439 1438 1437 1436 1436 1435 1435 1434 1433 1432 1431 1430 1429 1428 1426 1425 1424 1424 1423 1422 1421 1421 1420 1420 1420 1420 1420 1421 1421 1421 1422 1422 1421 1421 1422 1422
1445 1445 1444 1444 1442 1441 1440 1438 1437 1436 1434 1433 1433 1432 1432 1431 1430 1428 1427 1426 1425 1424 1423 1422 1421 1421 1420 1419 1418 1417 1417 1417 1417 1416 1416 1417 1417 1417 1417 1417 1417 1417 1417 1418
1445 1444 1443 1442 1441 1439 1438 1437 1435 1434 1432 1431 1430 1429 1428 1427 1426 1425 1424 1423 1422 1421 1420 1419 1418 1418 1417 1416 1415 1415 1414 1414 1414 1414 1414 1414 1414 1413 1413 1413 1413 1413 1414 1414
1444 1443 1442 1441 1440 1438 1437 1435 1434 1432 1430 1429 1428 1427 1426 1425 1424 1423 1421 1420 1419 1418 1418 1417 1416 1416 1415 1414 1414 1413 1412 1412 1411 1411 1411 1411 1410 1410 1410 1410 1410 1410 1411 1411